Temp
-13 -13 -13 -13 -13 -13 -13 -13 -13 -13 -13 -13 -13 -12 -12 -12 -11 -11 -10 -10 -11 -11 -11 -11 -11 -11 -12 -12 -11 -10 -10 -9 -9 -9 -8 -9 -9 -9 -9 -10 -9 -10 -10 -9 -8
-13 -13 -13 -13 -13 -13 -13 -13 -13 -13 -13 -13 -13 -12 -12 -12 -12 -11 -11 -11 -10 -11 -10 -11 -11 -11 -11 -11 -11 -11 -10 -9 -9 -9 -9 -9 -9 -9 -9 -9 -8 -10 -10 -8 -9
-13 -13 -13 -13 -13 -13 -13 -13 -13 -13 -13 -13 -13 -13 -12 -12 -12 -12 -12 -11 -11 -11 -11 -11 -12 -11 -11 -11 -11 -11 -9 -10 -10 -10 -10 -10 -9 -9 -9 -10 -9 -9 -10 -9 -9
-13 -13 -13 -13 -13 -13 -13 -13 -13 -13 -13 -13 -13 -13 -13 -12 -11 -12 -12 -12 -12 -11 -11 -11 -11 -11 -11 -11 -11 -11 -10 -10 -10 -10 -10 -10 -10 -9 -9 -9 -9 -11 -10 -9 -8
-13 -13 -13 -14 -14 -14 -14 -14 -13 -13 -13 -13 -13 -13 -13 -12 -12 -12 -12 -12 -12 -12 -12 -11 -11 -11 -11 -11 -11 -10 -10 -10 -10 -10 -11 -11 -10 -9 -9 -9 -10 -10 -10 -10 -10
-13 -13 -13 -13 -14 -14 -13 -13 -13 -13 -13 -13 -13 -13 -13 -12 -13 -12 -12 -12 -12 -12 -12 -12 -12 -11 -10 -10 -10 -10 -10 -10 -11 -11 -10 -10 -10 -11 -9 -10 -10 -11 -9 -10 -9
-13 -13 -13 -13 -13 -14 -14 -14 -14 -13 -13 -13 -13 -13 -13 -12 -12 -12 -12 -12 -12 -12 -12 -12 -12 -12 -11 -11 -11 -11 -10 -10 -10 -10 -10 -11 -10 -10 -9 -10 -10 -10 -10 -10 -10
-13 -13 -13 -14 -14 -14 -14 -14 -14 -14 -14 -14 -13 -13 -13 -13 -12 -12 -12 -12 -12 -12 -12 -12 -12 -12 -12 -12 -12 -12 -11 -10 -9 -10 -10 -12 -10 -9 -10 -10 -10 -10 -11 -10 -10
-13 -13 -13 -14 -14 -14 -14 -14 -14 -14 -14 -14 -14 -14 -13 -13 -13 -13 -13 -12 -12 -12 -12 -12 -12 -12 -12 -12 -12 -12 -11 -11 -10 -11 -11 -13 -11 -9 -10 -10 -11 -11 -11 -11 -11
-13 -13 -13 -13 -14 -14 -14 -14 -14 -14 -14 -14 -14 -14 -13 -13 -13 -13 -12 -12 -12 -12 -12 -12 -12 -12 -12 -12 -11 -12 -12 -12 -11 -11 -12 -14 -12 -9 -10 -10 -10 -11 -11 -11 -11
-14 -14 -13 -13 -13 -14 -14 -14 -14 -14 -14 -14 -14 -14 -14 -14 -13 -13 -13 -13 -13 -13 -13 -13 -13 -13 -13 -13 -12 -12 -12 -12 -11 -11 -13 -15 -13 -10 -10 -11 -10 -10 -10 -11 -11
-14 -14 -14 -13 -13 -13 -14 -14 -14 -14 -14 -14 -14 -14 -14 -14 -13 -13 -13 -13 -13 -13 -13 -13 -13 -14 -13 -13 -13 -13 -13 -12 -12 -12 -13 -13 -12 -11 -11 -10 -10 -11 -11 -11 -11
-15 -14 -14 -14 -14 -14 -14 -14 -14 -14 -14 -14 -14 -14 -14 -15 -14 -15 -15 -14 -14 -14 -14 -14 -14 -14 -14 -14 -13 -13 -13 -13 -13 -13 -15 -12 -12 -12 -11 -11 -11 -12 -10 -11 -11
-15 -15 -15 -14 -14 -14 -14 -14 -14 -14 -14 -14 -15 -15 -15 -15 -15 -15 -14 -14 -14 -14 -14 -14 -15 -15 -15 -14 -15 -15 -16 -16 -15 -15 -14 -14 -13 -13 -11 -11 -11 -11 -11 -9 -10
-16 -15 -15 -15 -14 -14 -14 -14 -14 -14 -15 -15 -15 -15 -15 -15 -15 -15 -15 -15 -14 -15 -15 -17 -18 -19 -18 -19 -20 -20 -20 -21 -20 -20 -19 -16 -15 -11 -12 -11 -11 -11 -11 -12 -10
-16 -16 -15 -15 -15 -15 -15 -15 -14 -15 -15 -15 -15 -15 -16 -16 -16 -17 -17 -17 -18 -19 -21 -20 -21 -21 -20 -21 -21 -21 -21 -21 -21 -21 -21 -14 -19 -12 -12 -12 -12 -12 -12 -12 -12
-15 -16 -16 -15 -15 -15 -15 -15 -15 -16 -16 -16 -16 -17 -17 -17 -18 -18 -19 -19 -22 -20 -20 -20 -21 -21 -20 -20 -21 -20 -21 -21 -22 -21 -21 -18 -21 -14 -14 -13 -13 -15 -15 -14 -13
-15 -15 -16 -16 -15 -15 -15 -16 -16 -17 -16 -17 -17 -17 -17 -20 -19 -19 -21 -22 -22 -20 -20 -21 -20 -21 -21 -21 -21 -20 -21 -21 -21 -21 -20 -20 -20 -18 -15 -15 -15 -14 -14 -14 -14
-15 -15 -15 -16 -16 -16 -15 -15 -16 -16 -16 -17 -17 -18 -19 -20 -20 -20 -22 -22 -21 -21 -21 -22 -22 -22 -22 -22 -21 -21 -21 -22 -21 -20 -21 -19 -19 -19 -19 -16 -15 -14 -14 -14 -12
-15 -15 -15 -16 -16 -16 -15 -16 -16 -16 -16 -17 -17 -18 -19 -19 -19 -20 -20 -22 -22 -22 -22 -23 -22 -23 -22 -22 -21 -21 -21 -21 -20 -20 -20 -20 -19 -18 -19 -16 -15 -15 -15 -14 -13
-15 -15 -15 -16 -16 -16 -16 -16 -16 -16 -17 -17 -18 -18 -19 -19 -19 -20 -20 -21 -21 -21 -22 -23 -23 -22 -23 -22 -21 -21 -22 -21 -21 -21 -21 -20 -18 -18 -18 -17 -16 -15 -15 -14 -14
-14 -15 -15 -15 -16 -16 -16 -16 -16 -17 -17 -18 -18 -19 -19 -19 -20 -20 -20 -20 -21 -21 -22 -23 -23 -22 -22 -22 -21 -21 -21 -21 -21 -21 -20 -19 -18 -17 -17 -16 -15 -16 -15 -15 -14
-14 -15 -15 -15 -16 -16 -16 -16 -17 -17 -18 -18 -18 -19 -20 -20 -19 -20 -20 -20 -20 -21 -22 -22 -22 -22 -22 -22 -21 -22 -21 -21 -21 -20 -19 -19 -18 -16 -16 -15 -16 -16 -15 -16 -13
-14 -14 -15 -15 -16 -16 -16 -17 -17 -18 -18 -18 -19 -19 -20 -20 -20 -19 -20 -19 -20 -20 -21 -22 -22 -22 -21 -22 -22 -21 -22 -21 -21 -21 -20 -20 -18 -16 -16 -16 -15 -15 -15 -15 -13
-15 -15 -15 -15 -15 -16 -16 -17 -17 -18 -19 -19 -19 -19 -20 -20 -20 -19 -20 -20 -20 -20 -21 -21 -21 -21 -21 -21 -22 -22 -21 -22 -21 -19 -21 -21 -20 -20 -18 -17 -15 -16 -17 -15 -12
-15 -15 -15 -15 -16 -16 -16 -17 -17 -18 -19 -19 -19 -19 -20 -20 -19 -20 -20 -20 -20 -20 -21 -21 -21 -21 -21 -21 -22 -22 -20 -22 -21 -20 -20 -20 -20 -21 -19 -17 -18 -18 -18 -15 -14
-15 -15 -15 -16 -16 -16 -16 -17 -17 -18 -19 -19 -19 -19 -20 -20 -20 -19 -20 -20 -20 -20 -21 -21 -21 -21 -21 -21 -21 -21 -22 -20 -19 -19 -21 -21 -21 -21 -20 -19 -19 -19 -18 -18 -15
Height
5757 5755 5754 5753 5752 5750 5749 5748 5747 5747 5748 5748 5751 5753 5755 5758 5762 5766 5771 5774 5777 5780 5784 5787 5791 5794 5795 5800 5804 5808 5809 5812 5820 5823 5829 5834 5834 5836 5837 5837 5849 5856 5857 5856 5858
5752 5751 5750 5749 5747 5746 5745 5745 5744 5744 5745 5746 5747 5749 5751 5754 5757 5761 5765 5767 5770 5773 5777 5779 5783 5785 5789 5793 5796 5797 5800 5809 5815 5816 5818 5824 5825 5830 5833 5838 5841 5847 5846 5847 5852
5749 5747 5746 5744 5743 5742 5742 5741 5741 5741 5741 5742 5744 5745 5747 5749 5753 5758 5759 5762 5765 5767 5770 5774 5777 5780 5782 5785 5790 5792 5792 5803 5808 5808 5811 5813 5819 5823 5825 5828 5833 5836 5839 5839 5844
5746 5744 5742 5741 5739 5738 5737 5737 5737 5738 5738 5738 5740 5742 5743 5745 5749 5750 5753 5756 5758 5761 5763 5766 5769 5771 5774 5776 5779 5780 5788 5793 5799 5799 5799 5804 5808 5814 5817 5820 5823 5830 5835 5830 5837
5744 5742 5740 5738 5736 5735 5734 5734 5734 5734 5734 5735 5736 5737 5739 5740 5744 5744 5747 5749 5751 5753 5756 5758 5761 5762 5765 5767 5767 5772 5780 5781 5784 5785 5787 5793 5798 5802 5807 5815 5819 5817 5825 5825 5829
5741 5738 5736 5734 5732 5732 5730 5730 5730 5731 5730 5731 5732 5733 5734 5735 5737 5739 5740 5742 5745 5747 5749 5750 5752 5754 5756 5758 5761 5764 5766 5769 5771 5773 5778 5781 5787 5790 5801 5808 5810 5811 5814 5820 5815
5738 5735 5732 5730 5727 5726 5726 5725 5725 5725 5726 5726 5727 5727 5729 5730 5730 5732 5734 5736 5738 5740 5741 5743 5744 5746 5747 5750 5753 5752 5754 5756 5759 5765 5768 5771 5768 5778 5795 5798 5800 5802 5806 5809 5811
5735 5731 5727 5724 5722 5721 5721 5720 5720 5720 5721 5721 5721 5722 5721 5725 5724 5726 5727 5729 5730 5732 5733 5734 5735 5736 5736 5738 5740 5742 5745 5748 5760 5755 5760 5757 5755 5772 5783 5784 5787 5790 5796 5800 5804
5733 5729 5725 5721 5718 5717 5715 5715 5714 5714 5715 5715 5716 5716 5714 5717 5719 5719 5720 5721 5722 5723 5723 5724 5724 5725 5725 5725 5728 5733 5731 5735 5743 5743 5744 5742 5744 5760 5770 5769 5772 5775 5782 5788 5792
5730 5727 5723 5719 5716 5713 5711 5710 5710 5709 5709 5709 5710 5710 5710 5709 5711 5711 5712 5712 5713 5714 5715 5715 5714 5713 5713 5712 5718 5717 5716 5721 5726 5740 5730 5729 5728 5748 5752 5756 5758 5762 5769 5775 5779
5727 5724 5721 5717 5714 5711 5709 5707 5707 5706 5704 5704 5704 5703 5702 5703 5703 5703 5703 5703 5703 5704 5704 5702 5702 5702 5701 5701 5705 5702 5701 5705 5713 5719 5710 5713 5718 5728 5737 5738 5745 5750 5755 5760 5767
5724 5721 5718 5715 5712 5709 5706 5704 5702 5702 5699 5698 5696 5697 5696 5696 5695 5694 5694 5695 5694 5693 5693 5693 5690 5688 5687 5687 5690 5689 5687 5692 5696 5698 5690 5695 5700 5713 5721 5725 5732 5735 5742 5749 5756
5721 5717 5715 5712 5709 5707 5704 5702 5698 5696 5695 5694 5692 5691 5691 5690 5687 5688 5686 5684 5683 5682 5680 5678 5676 5674 5672 5673 5674 5675 5672 5677 5676 5678 5671 5683 5681 5695 5708 5713 5719 5721 5730 5737 5742
5717 5714 5712 5709 5708 5704 5701 5698 5695 5692 5689 5690 5687 5687 5685 5684 5681 5680 5678 5676 5672 5668 5665 5661 5658 5656 5654 5655 5655 5654 5658 5656 5655 5656 5656 5667 5662 5673 5693 5700 5706 5712 5716 5724 5732
5711 5710 5708 5705 5703 5700 5698 5694 5691 5688 5686 5684 5680 5680 5677 5676 5674 5668 5663 5661 5656 5652 5650 5649 5644 5640 5639 5642 5643 5642 5643 5643 5642 5641 5640 5645 5645 5660 5677 5684 5691 5700 5706 5708 5719
5706 5705 5704 5702 5699 5697 5693 5691 5688 5686 5682 5678 5677 5673 5669 5666 5664 5659 5655 5650 5646 5643 5642 5638 5634 5634 5630 5629 5631 5635 5631 5630 5629 5627 5623 5631 5634 5643 5655 5672 5682 5688 5695 5699 5701
5700 5700 5699 5697 5696 5693 5690 5688 5686 5682 5678 5675 5672 5667 5664 5661 5658 5654 5650 5646 5644 5641 5637 5632 5629 5627 5625 5621 5625 5627 5625 5620 5618 5618 5609 5620 5620 5619 5640 5655 5668 5679 5683 5686 5692
5699 5698 5696 5694 5692 5690 5687 5684 5681 5677 5674 5670 5667 5664 5659 5657 5653 5648 5646 5646 5641 5633 5628 5622 5620 5619 5620 5619 5620 5620 5619 5615 5607 5607 5604 5606 5601 5605 5624 5642 5656 5660 5674 5676 5682
5698 5695 5693 5691 5689 5686 5684 5680 5676 5673 5669 5666 5663 5659 5657 5654 5648 5645 5642 5639 5634 5628 5624 5616 5613 5613 5614 5615 5614 5613 5609 5610 5603 5602 5596 5596 5598 5601 5608 5631 5641 5653 5662 5663 5669
5696 5692 5691 5689 5686 5683 5681 5676 5672 5668 5664 5660 5657 5654 5651 5648 5644 5639 5637 5635 5627 5621 5616 5612 5604 5606 5605 5608 5609 5607 5605 5600 5595 5596 5593 5593 5592 5595 5602 5619 5630 5637 5647 5652 5660
5694 5691 5687 5685 5683 5681 5677 5673 5667 5662 5659 5655 5651 5648 5645 5642 5638 5635 5632 5628 5621 5615 5610 5605 5600 5600 5599 5603 5603 5603 5599 5598 5595 5594 5591 5588 5589 5592 5595 5608 5618 5632 5642 5646 5656
5694 5690 5686 5683 5681 5677 5672 5667 5663 5658 5655 5650 5646 5642 5639 5636 5633 5630 5627 5621 5615 5608 5604 5600 5594 5592 5593 5594 5594 5595 5593 5592 5586 5592 5588 5584 5585 5585 5593 5602 5619 5629 5634 5636 5646
5696 5691 5686 5681 5677 5672 5668 5664 5659 5654 5648 5645 5642 5638 5635 5631 5628 5625 5622 5617 5610 5604 5600 5595 5593 5589 5590 5592 5589 5587 5589 5585 5583 5584 5584 5579 5579 5583 5588 5591 5592 5614 5623 5623 5637
5697 5692 5686 5681 5676 5670 5665 5660 5655 5648 5646 5640 5636 5633 5631 5627 5624 5621 5618 5612 5607 5602 5597 5592 5590 5587 5586 5586 5584 5585 5583 5580 5581 5578 5579 5577 5574 5577 5585 5593 5589 5598 5609 5616 5627
5697 5691 5685 5680 5673 5668 5662 5656 5651 5645 5639 5635 5633 5628 5626 5623 5621 5618 5614 5610 5605 5601 5596 5592 5589 5585 5583 5581 5581 5580 5581 5581 5577 5573 5573 5582 5580 5565 5567 5577 5591 5595 5592 5612 5621
5697 5691 5684 5678 5672 5666 5660 5654 5647 5642 5636 5632 5627 5624 5621 5618 5616 5614 5611 5606 5603 5599 5595 5591 5588 5584 5582 5579 5576 5575 5575 5576 5573 5568 5566 5575 5578 5578 5564 5573 5577 5583 5592 5602 5614
5696 5689 5683 5677 5671 5664 5658 5652 5645 5639 5633 5627 5624 5619 5616 5614 5612 5609 5605 5604 5601 5596 5593 5589 5585 5581 5579 5576 5574 5575 5573 5571 5573 5570 5562 5562 5567 5566 5568 5569 5571 5577 5587 5596 5607
Wind_Speed
20 20 21 20 19 18 16 16 17 16 17 17 18 19 20 23 28 35 40 41 43 45 46 47 45 41 46 46 45 44 47 46 43 43 39 33 42 40 43 37 30 26 33 40 38
20 19 19 19 19 20 19 17 16 16 16 16 17 18 19 20 21 23 28 34 36 37 40 43 44 42 42 49 54 55 53 55 38 39 43 39 43 42 40 34 36 34 31 45 49
17 17 19 19 18 19 19 18 18 18 18 18 19 20 21 22 23 20 25 28 29 32 36 38 39 40 41 44 49 54 58 50 48 43 43 41 44 44 43 37 36 43 45 50 49
15 15 15 15 15 15 18 19 18 19 20 21 21 22 23 24 25 23 26 27 28 30 33 37 39 42 43 42 44 52 51 54 56 52 51 56 52 45 48 45 42 22 41 53 45
18 19 18 18 18 18 17 17 17 17 19 20 20 21 23 24 24 26 26 28 29 30 32 34 36 39 42 45 47 48 45 48 52 58 59 56 64 61 49 45 40 43 28 35 46
17 18 20 22 23 22 22 20 20 19 20 21 21 22 23 25 21 24 26 28 30 31 34 36 38 40 40 43 47 48 50 51 50 53 58 68 63 58 61 50 47 48 46 36 41
18 20 20 20 21 24 25 24 24 22 21 21 21 22 24 24 24 24 25 26 28 30 32 34 36 37 41 44 45 48 51 54 54 52 52 54 63 72 56 55 51 49 49 54 42
18 20 21 21 21 22 23 24 25 26 24 24 24 25 28 23 28 28 29 30 31 32 34 36 37 38 40 42 44 47 51 53 47 52 50 54 61 51 51 64 62 57 49 51 55
19 19 18 19 20 20 20 21 23 24 25 26 27 28 32 28 29 32 33 34 33 34 36 38 41 42 44 47 48 47 51 51 50 52 54 53 59 53 50 54 67 67 62 57 54
18 18 18 18 18 17 16 16 17 19 22 24 24 27 28 31 29 31 32 34 35 36 38 40 43 46 48 50 50 52 55 55 55 48 53 47 58 55 54 53 57 63 71 67 63
18 18 16 18 19 18 17 16 15 14 17 18 19 23 26 27 30 31 33 34 36 37 39 42 45 47 50 53 55 58 60 61 59 58 58 46 55 59 58 58 56 58 58 66 68
19 17 17 16 18 19 19 16 16 14 16 16 20 22 25 28 31 33 34 35 37 40 41 42 45 48 51 53 55 59 63 65 66 65 66 63 67 64 61 60 61 61 58 58 63
21 19 17 16 17 18 18 18 18 16 15 16 20 22 24 25 30 30 34 37 38 40 41 44 46 49 51 53 55 57 60 62 65 65 62 69 71 69 65 64 64 57 61 58 59
21 20 17 16 16 17 18 20 19 20 20 14 14 15 23 24 29 28 31 33 37 40 44 47 46 48 52 52 51 56 52 55 60 60 65 61 72 68 67 67 66 64 66 62 58
20 19 17 15 17 18 18 20 19 20 20 19 21 19 24 25 26 30 35 38 41 44 46 42 41 42 35 29 25 32 38 36 39 42 52 62 66 79 71 70 68 67 65 65 61
19 18 16 16 18 17 18 19 20 20 16 23 20 22 25 27 28 32 36 38 39 38 32 36 34 20 19 26 27 29 37 40 40 43 50 67 53 79 75 73 70 65 65 64 64
18 13 15 16 17 17 17 18 19 16 20 23 23 25 26 27 26 31 26 24 24 32 31 32 25 18 18 10 16 24 27 32 34 34 46 48 44 71 69 67 61 33 42 47 55
22 18 16 16 18 18 17 19 19 17 19 23 23 23 25 23 26 26 20 19 28 33 35 32 21 24 31 25 23 22 26 32 34 30 29 32 43 47 57 55 38 40 36 34 32
20 18 18 18 18 17 18 21 22 21 22 21 22 23 19 17 27 21 18 24 27 30 31 30 27 26 24 24 19 20 23 23 36 31 41 32 33 38 39 45 47 33 44 45 48
24 19 16 18 17 17 19 21 21 22 21 21 22 22 21 22 25 18 21 22 29 33 35 31 35 20 27 16 19 20 19 24 25 34 28 23 30 26 33 56 40 34 31 52 56
27 23 17 16 19 21 23 22 25 25 22 21 21 22 23 23 20 16 20 23 28 34 32 30 35 19 17 15 20 18 21 18 22 30 27 27 15 22 27 59 48 30 19 44 41
28 24 21 21 22 23 25 26 26 27 24 21 20 19 21 22 13 15 20 25 29 29 26 29 26 20 16 19 24 22 18 21 36 22 20 23 12 7 29 45 51 31 27 38 44
30 27 25 23 24 25 27 27 28 26 26 22 22 19 19 21 11 14 19 23 26 25 27 19 16 19 14 12 21 23 21 20 27 17 22 30 19 17 21 47 46 49 58 52 50
29 28 26 25 26 27 27 29 29 30 24 24 22 19 18 19 13 14 17 21 22 21 22 14 12 15 20 19 23 12 12 22 22 18 20 34 22 33 33 39 40 40 25 43 48
30 27 27 28 29 30 30 30 28 28 28 24 23 21 17 16 13 14 16 17 22 20 17 14 13 13 13 15 11 16 17 13 17 16 26 23 27 38 26 21 44 35 15 52 48
30 29 28 28 29 30 32 31 30 26 26 22 24 23 19 16 13 12 14 18 19 20 19 19 13 12 8 13 10 13 16 22 19 18 24 25 28 28 28 27 28 13 18 51 50
30 29 29 29 30 31 32 32 32 27 24 25 23 23 20 18 14 13 17 16 18 18 22 23 23 26 18 17 14 12 15 23 23 23 29 31 27 33 34 23 6 11 24 36 56
Wind_Direction
285 281 280 280 280 277 272 266 262 256 256 235 234 229 229 233 235 236 240 244 245 244 245 244 247 249 239 227 233 233 235 231 227 235 236 230 235 225 223 214 222 200 237 224 224
283 281 279 278 277 274 273 268 262 258 253 246 239 236 234 233 233 234 234 238 241 243 242 246 247 248 246 236 235 234 235 236 234 234 235 230 233 234 239 245 237 210 227 232 233
292 286 279 274 273 273 271 267 264 260 255 251 246 243 239 238 238 234 235 236 237 239 240 241 241 243 248 242 237 239 236 236 236 238 244 239 235 233 236 233 232 225 223 235 236
297 292 287 283 278 271 266 265 264 261 258 254 249 246 244 243 242 241 243 242 240 237 237 240 242 244 244 249 245 243 245 246 241 246 245 239 231 233 238 237 224 237 239 243 242
300 297 291 286 279 273 269 263 260 260 259 258 256 253 251 249 245 247 244 245 245 246 244 243 244 245 245 244 244 249 249 249 244 243 246 245 237 236 238 239 241 228 222 259 253
313 304 296 288 283 279 276 270 263 258 258 258 258 260 261 257 256 249 251 249 250 247 247 246 246 247 247 249 250 249 248 248 247 245 243 245 245 246 235 233 237 240 238 218 249
329 319 307 297 288 279 275 277 279 277 271 267 264 261 259 262 260 258 257 256 254 254 253 253 253 253 251 248 248 247 246 247 249 252 251 249 246 243 238 231 235 238 238 234 227
341 333 319 308 300 292 281 273 269 270 270 270 270 269 266 268 266 264 263 264 262 260 259 259 259 259 258 256 254 252 249 250 250 256 254 252 252 249 245 240 237 236 237 239 240
345 343 333 321 311 304 295 281 272 269 267 266 267 267 266 264 265 264 264 265 265 265 265 264 264 264 264 262 259 259 259 254 247 254 257 255 256 248 246 243 240 240 238 236 237
337 345 349 345 331 324 316 302 287 275 266 263 263 263 265 264 263 263 264 265 265 265 264 263 263 263 264 264 264 263 261 257 254 249 255 251 258 248 249 245 244 244 242 238 237
324 332 339 348 352 345 332 319 304 296 281 274 267 266 268 267 270 270 270 270 268 267 269 269 266 264 262 261 260 259 259 258 255 253 246 244 251 247 246 249 244 243 243 248 243
319 323 332 336 340 344 343 336 322 307 290 283 280 279 281 281 280 278 276 275 274 273 270 267 264 262 261 260 258 258 258 258 257 256 248 247 250 249 244 248 246 244 240 242 244
314 313 316 327 334 337 341 339 332 317 303 293 285 284 282 280 279 284 283 283 280 276 273 272 271 269 269 268 266 261 258 255 255 249 249 251 250 251 245 248 247 251 242 238 240
310 310 312 317 330 331 336 337 336 332 316 307 305 296 291 289 290 287 284 286 290 291 288 287 287 284 279 276 273 265 261 259 257 253 251 246 249 243 247 246 249 249 251 243 238
301 305 307 314 326 328 331 335 335 334 323 325 317 309 306 303 302 310 307 306 308 308 304 303 299 289 288 266 267 266 264 264 259 257 258 251 249 247 245 244 244 246 248 250 240
294 303 304 309 319 323 328 332 332 328 327 314 312 316 316 321 317 318 321 321 318 319 318 310 297 289 285 267 256 263 263 265 262 258 258 252 252 243 242 243 241 245 245 244 250
325 292 310 318 319 321 328 329 331 321 328 323 323 319 318 315 324 324 321 328 318 321 320 305 286 280 273 292 279 262 282 286 273 265 267 266 257 249 241 237 231 235 246 245 246
340 334 315 311 315 320 327 331 328 317 323 319 317 315 319 310 321 324 322 325 303 316 318 313 283 247 249 275 270 248 256 266 266 273 257 243 246 254 245 229 208 221 227 226 235
347 330 329 322 321 321 329 330 327 325 318 318 314 316 316 304 308 306 315 309 314 308 313 304 288 271 267 253 259 267 275 276 272 274 280 262 248 244 221 195 207 201 211 210 214
359 348 332 325 328 328 330 326 320 322 317 319 316 313 311 308 314 297 308 308 306 306 296 300 297 285 263 260 266 301 290 254 266 273 285 278 284 242 223 186 188 183 193 208 221
1 1 350 343 337 335 335 331 326 322 318 316 315 312 311 312 311 297 312 314 317 310 294 277 292 296 277 248 282 275 292 285 266 264 275 266 243 218 208 196 201 192 209 223 218
13 8 1 350 345 341 335 334 331 321 315 314 314 308 307 312 296 297 313 321 324 321 314 294 296 296 282 238 248 268 264 254 267 252 245 248 180 190 198 182 203 221 232 223 222
19 13 7 358 349 343 339 334 331 323 315 315 317 309 308 311 297 303 323 325 327 329 322 315 290 295 284 270 261 275 250 250 265 259 243 248 208 158 168 154 168 199 213 232 235
15 14 9 359 350 343 340 337 334 327 320 316 319 314 312 307 289 311 329 330 329 330 333 327 313 283 287 283 268 277 333 251 255 279 244 239 227 151 161 182 165 165 203 202 197
12 11 7 3 358 353 350 347 341 330 323 322 322 313 307 309 282 305 318 326 332 341 332 329 320 302 297 294 293 280 287 261 255 280 277 254 260 270 231 145 173 167 145 206 194
10 11 7 3 358 354 352 349 347 339 324 321 322 315 308 317 275 277 306 314 326 346 339 318 301 290 276 286 328 264 266 261 255 256 275 280 275 298 263 147 154 132 184 204 209
0 5 5 2 358 356 354 350 346 345 326 323 325 317 306 312 298 280 298 320 334 337 341 333 323 312 323 274 278 268 258 261 221 240 258 267 266 261 263 257 244 175 189 214 213